DW8673 Jerrabomberra AU current weather conditions

sailwx.info

Wind from 068

Air temperature 2.2° C
Dewpoint -1.2° C

Last reported at 2017-Jul-26 16:08 UTC.
Time now 2017-Jul-26 17:01 UTC

Location: S 35°23' E 149°12'.
View on Google Maps.

See reports from other nearby stations

  
Tides and Currents Weather Stations Pressure Air Temp Water Temp Dewpoint Dewpoint Depression Visibility Wind Speed Wind Dir Waves Ship Positions
date/time (UTC)wind fromknots sea level pressurealtimeterstation pressurevisibilityair tempwater tempwave heightnotes
2017-Jul-26 16:08 068 2.2
2017-Jul-26 16:03 266 2.2
2017-Jul-26 15:48 2.8
2017-Jul-26 15:43 068 3.3
2017-Jul-26 15:38 219 3.3
2017-Jul-26 15:33 038 1 gusting 4 3.3
2017-Jul-26 15:18 045 0 gusting 1 3.9
2017-Jul-26 15:13 041 0 gusting 1 3.9
2017-Jul-26 15:08 059 1 gusting 2 4.4
2017-Jul-26 15:03 036 2 gusting 5 4.4
2017-Jul-26 14:48 050 1 gusting 4 4.4
2017-Jul-26 14:43 040 1 gusting 4 4.4
2017-Jul-26 14:38 025 1 gusting 2 4.4
2017-Jul-26 14:33 024 1 gusting 4 4.4
2017-Jul-26 14:18 043 1 gusting 4 4.4
2017-Jul-26 14:13 032 2 gusting 4 3.9
2017-Jul-26 14:08 024 1 gusting 4 4.4
2017-Jul-26 14:03 040 1 gusting 6 4.4
2017-Jul-26 13:48 039 1 gusting 5 4.4
2017-Jul-26 13:43 043 2 gusting 4 3.9
2017-Jul-26 13:38 046 2 gusting 6 3.9
2017-Jul-26 13:33 056 1 gusting 2 3.3
2017-Jul-26 13:08 045 0 gusting 0 3.9
2017-Jul-26 13:03 270 3.9
2017-Jul-26 12:48 077 0 gusting 1 3.9
2017-Jul-26 12:43 058 0 gusting 1 3.9
2017-Jul-26 12:38 299 0 gusting 1 4.4
2017-Jul-26 12:33 235 0 gusting 1 4.4
2017-Jul-26 12:18 190 4.4
2017-Jul-26 12:13 081 5.0
2017-Jul-26 12:08 073 5.0
2017-Jul-26 12:03 028 0 gusting 2 5.0
2017-Jul-26 11:48 313 0 gusting 1 5.0
2017-Jul-26 11:43 342 1 gusting 2 5.0
2017-Jul-26 11:38 282 1 gusting 2 5.0
2017-Jul-26 11:33 345 0 gusting 1 5.0
2017-Jul-26 11:18 346 0 gusting 1 5.6
2017-Jul-26 11:13 002 0 gusting 1 5.6
2017-Jul-26 11:08 336 5.6
2017-Jul-26 11:03 248 6.1
2017-Jul-26 10:48 247 6.7
2017-Jul-26 10:43 324 7.2
2017-Jul-26 10:38 297 0 gusting 4 7.2
2017-Jul-26 10:33 199 7.2
2017-Jul-26 10:18 295 1 gusting 4 7.2
2017-Jul-26 10:13 299 2 gusting 5 7.2
2017-Jul-26 10:08 273 1 gusting 6 7.2
2017-Jul-26 10:03 301 2 gusting 6 7.2
2017-Jul-26 09:48 286 2 gusting 4 7.8
2017-Jul-26 09:43 271 2 gusting 5 7.8
2017-Jul-26 09:38 300 0 gusting 4 7.8
2017-Jul-26 09:33 284 1 gusting 5 7.8
2017-Jul-26 09:18 296 1 gusting 4 7.8
2017-Jul-26 09:13 295 2 gusting 5 7.8
2017-Jul-26 09:08 329 1 gusting 4 7.8
2017-Jul-26 09:03 288 0 gusting 2 7.8
2017-Jul-26 08:48 311 2 gusting 5 8.3
2017-Jul-26 08:43 308 1 gusting 2 8.3
2017-Jul-26 08:38 211 0 gusting 4 8.3
2017-Jul-26 08:33 303 1 gusting 4 8.3
2017-Jul-26 08:18 243 3 gusting 6 8.9
2017-Jul-26 08:13 274 1 gusting 5 8.9
2017-Jul-26 08:08 280 2 gusting 6 8.9
2017-Jul-26 08:03 268 2 gusting 6 8.9
2017-Jul-26 07:48 277 2 gusting 5 8.9
2017-Jul-26 07:43 299 1 gusting 4 8.9
2017-Jul-26 07:38 294 2 gusting 4 8.9
2017-Jul-26 07:33 302 2 gusting 6 8.9
2017-Jul-26 07:18 303 1 gusting 2 9.4
2017-Jul-26 07:13 272 1 gusting 4 9.4
2017-Jul-26 07:08 252 1 gusting 4 9.4
2017-Jul-26 07:03 260 2 gusting 5 9.4
2017-Jul-26 06:48 247 2 gusting 5 9.4
2017-Jul-26 06:43 230 1 gusting 6 9.4
2017-Jul-26 06:38 268 1 gusting 4 9.4
2017-Jul-26 06:33 272 1 gusting 10 10.0
2017-Jul-26 06:18 305 3 gusting 7 10.0
2017-Jul-26 06:13 315 2 gusting 5 10.0
2017-Jul-26 06:08 301 2 gusting 5 10.0
2017-Jul-26 06:03 243 2 gusting 6 10.0
2017-Jul-26 05:48 275 4 gusting 6 10.6
2017-Jul-26 05:43 288 4 gusting 6 11.1
2017-Jul-26 05:38 322 3 gusting 8 11.1
2017-Jul-26 05:33 327 4 gusting 8 11.7
2017-Jul-26 05:18 263 4 gusting 6 12.2
2017-Jul-26 05:13 265 4 gusting 6 12.2
2017-Jul-26 05:08 276 4 gusting 7 12.8
2017-Jul-26 05:03 308 5 gusting 10 12.8
2017-Jul-26 04:48 280 2 gusting 6 13.3
2017-Jul-26 04:43 268 3 gusting 8 12.8
2017-Jul-26 04:38 314 3 gusting 7 13.3
2017-Jul-26 04:33 292 4 gusting 7 13.9
2017-Jul-26 04:18 308 2 gusting 7 13.3
2017-Jul-26 04:13 266 2 gusting 6 13.3
2017-Jul-26 04:08 295 3 gusting 6 13.9
2017-Jul-26 04:03 241 3 gusting 6 13.9
2017-Jul-26 03:48 275 2 gusting 6 13.9
2017-Jul-26 03:43 250 5 gusting 11 13.9
2017-Jul-26 03:38 253 3 gusting 7 14.4
2017-Jul-26 03:33 338 2 gusting 7 13.9
2017-Jul-26 03:18 287 4 gusting 8 13.3
2017-Jul-26 03:13 249 4 gusting 6 13.9
2017-Jul-26 03:08 301 2 gusting 6 14.4
2017-Jul-26 03:03 213 3 gusting 8 13.9
2017-Jul-26 02:48 274 2 gusting 5 13.3
2017-Jul-26 02:43 241 5 gusting 6 12.8
2017-Jul-26 02:38 301 4 gusting 8 12.8
2017-Jul-26 02:33 247 2 gusting 6 12.2
2017-Jul-26 02:18 256 2 gusting 7 12.8
2017-Jul-26 02:13 242 2 gusting 6 13.3
2017-Jul-26 02:08 307 2 gusting 7 13.9
2017-Jul-26 02:03 242 2 gusting 10 13.9
2017-Jul-26 01:48 315 2 gusting 5 14.4
2017-Jul-26 01:43 253 2 gusting 5 14.4
2017-Jul-26 01:38 275 4 gusting 6 13.9
2017-Jul-26 01:33 285 2 gusting 6 14.4
2017-Jul-26 01:18 292 1 gusting 5 15.0
2017-Jul-26 01:13 266 3 gusting 6 15.0
2017-Jul-26 01:08 235 2 gusting 5 15.0
2017-Jul-26 01:03 298 2 gusting 6 15.0
2017-Jul-26 00:48 237 2 gusting 6 15.0
2017-Jul-26 00:43 295 1 gusting 4 14.4
2017-Jul-26 00:38 260 1 gusting 5 13.9
2017-Jul-26 00:33 274 4 gusting 7 13.9
2017-Jul-26 00:18 298 2 gusting 6 13.9
2017-Jul-26 00:13 294 3 gusting 6 13.3
2017-Jul-26 00:08 286 1 gusting 4 12.8
2017-Jul-26 00:03 297 2 gusting 8 12.2
2017-Jul-25 23:48 290 1 gusting 5 11.7
2017-Jul-25 23:43 281 3 gusting 6 11.7
2017-Jul-25 23:38 258 1 gusting 4 11.7
2017-Jul-25 23:33 245 2 gusting 6 11.7
2017-Jul-25 23:18 275 2 gusting 6 11.1
2017-Jul-25 23:13 265 2 gusting 6 11.1
2017-Jul-25 23:08 321 4 gusting 8 11.1
2017-Jul-25 23:03 176 3 gusting 8 11.1
2017-Jul-25 22:48 279 3 gusting 6 9.4
2017-Jul-25 22:43 305 4 gusting 6 9.4
2017-Jul-25 22:38 282 2 gusting 8 9.4
2017-Jul-25 22:33 306 4 gusting 12 9.4
2017-Jul-25 22:18 277 4 gusting 8 8.9
2017-Jul-25 22:13 268 4 gusting 12 8.9
2017-Jul-25 22:08 300 4 gusting 12 8.9
2017-Jul-25 22:03 301 4 gusting 13 8.9
2017-Jul-25 21:48 285 4 gusting 8 8.9
2017-Jul-25 21:43 295 4 gusting 11 8.9
2017-Jul-25 21:38 291 3 gusting 10 8.9
2017-Jul-25 21:33 298 5 gusting 11 8.3
2017-Jul-25 21:18 305 5 gusting 7 8.3
2017-Jul-25 21:13 285 4 gusting 7 8.3
2017-Jul-25 21:08 309 2 gusting 6 8.3
2017-Jul-25 21:03 302 4 gusting 6 8.3
2017-Jul-25 20:48 300 4 gusting 6 7.8
2017-Jul-25 20:43 268 2 gusting 5 7.8
2017-Jul-25 20:38 305 4 gusting 8 7.8
2017-Jul-25 20:33 328 2 gusting 6 7.8
2017-Jul-25 20:18 322 4 gusting 6 7.8
2017-Jul-25 20:13 311 3 gusting 6 7.8
2017-Jul-25 20:08 289 3 gusting 6 7.8
2017-Jul-25 20:03 299 3 gusting 6 7.8
2017-Jul-25 19:48 285 4 gusting 7 7.8
2017-Jul-25 19:43 292 4 gusting 6 7.8
2017-Jul-25 19:38 310 3 gusting 8 7.8
2017-Jul-25 19:33 265 3 gusting 6 7.8
2017-Jul-25 19:18 270 3 gusting 6 7.8
2017-Jul-25 19:13 289 2 gusting 5 7.8
2017-Jul-25 19:08 241 2 gusting 5 7.8
2017-Jul-25 19:03 296 4 gusting 6 7.8
2017-Jul-25 18:48 294 3 gusting 6 7.8
2017-Jul-25 18:43 291 2 gusting 5 7.8
2017-Jul-25 18:38 268 2 gusting 5 7.8
2017-Jul-25 18:33 334 4 gusting 6 7.8
2017-Jul-25 18:18 283 3 gusting 5 7.8
2017-Jul-25 18:13 296 3 gusting 6 7.8
2017-Jul-25 18:08 284 2 gusting 5 7.8
2017-Jul-25 18:03 292 2 gusting 6 7.8
2017-Jul-25 17:48 304 2 gusting 6 7.8
2017-Jul-25 17:43 293 1 gusting 6 7.8
2017-Jul-25 17:38 281 2 gusting 5 7.8
2017-Jul-25 17:33 286 2 gusting 5 7.8
2017-Jul-25 17:18 278 2 gusting 5 7.8
2017-Jul-25 17:13 275 2 gusting 2 7.8
2017-Jul-25 17:08 302 2 gusting 4 7.8
2017-Jul-25 17:03 304 1 gusting 2 7.8
2017-Jul-25 16:48 291 0 gusting 5 8.3
2017-Jul-25 16:43 285 1 gusting 2 8.3
2017-Jul-25 16:38 260 1 gusting 1 8.3
2017-Jul-25 16:33 296 1 gusting 6 8.3
2017-Jul-25 16:18 252 1 gusting 2 8.3
2017-Jul-25 16:13 271 2 gusting 4 8.3
2017-Jul-25 16:08 283 1 gusting 5 8.3
2017-Jul-25 16:03 273 2 gusting 6 8.3
2017-Jul-25 15:48 303 2 gusting 5 8.9
2017-Jul-25 15:43 301 2 gusting 4 8.9
2017-Jul-25 15:38 269 1 gusting 4 8.9
2017-Jul-25 15:33 263 0 gusting 7 8.9
2017-Jul-25 15:18 265 2 gusting 6 8.9
2017-Jul-25 15:13 252 1 gusting 6 8.9
2017-Jul-25 15:08 254 1 gusting 4 8.9
2017-Jul-25 15:03 303 2 gusting 6 8.9
2017-Jul-25 14:48 007 0 gusting 4 8.9
2017-Jul-25 14:43 295 1 gusting 4 8.9
2017-Jul-25 14:38 282 0 gusting 0 8.9
2017-Jul-25 14:33 250 0 gusting 4 9.4
2017-Jul-25 14:18 278 1 gusting 4 9.4
2017-Jul-25 14:13 310 1 gusting 2 9.4
2017-Jul-25 14:08 291 3 gusting 8 10.0
2017-Jul-25 14:03 284 3 gusting 5 9.4
2017-Jul-25 13:48 326 2 gusting 6 9.4
2017-Jul-25 13:43 312 2 gusting 6 9.4
2017-Jul-25 13:38 306 2 gusting 6 9.4
2017-Jul-25 13:33 316 2 gusting 8 9.4
2017-Jul-25 13:08 288 2 gusting 5 9.4
2017-Jul-25 13:03 330 2 gusting 5 9.4
2017-Jul-25 12:48 005 1 gusting 5 9.4
2017-Jul-25 12:43 286 2 gusting 5 9.4
2017-Jul-25 12:38 295 1 gusting 2 9.4
2017-Jul-25 12:33 267 2 gusting 5 9.4
2017-Jul-25 12:18 288 1 gusting 2 9.4
2017-Jul-25 12:13 267 2 gusting 6 8.9
2017-Jul-25 12:08 331 1 gusting 2 8.9
2017-Jul-25 12:03 238 1 gusting 4 8.9
2017-Jul-25 11:48 271 0 gusting 4 8.9
2017-Jul-25 11:43 264 0 gusting 2 8.9
2017-Jul-25 11:38 232 0 gusting 1 8.9
2017-Jul-25 11:33 316 0 gusting 4 8.9
2017-Jul-25 11:18 348 1 gusting 2 8.9
2017-Jul-25 11:13 311 1 gusting 4 8.9
2017-Jul-25 11:08 247 0 gusting 4 8.9
2017-Jul-25 11:03 228 1 gusting 5 9.4
2017-Jul-25 10:48 266 1 gusting 4 9.4
2017-Jul-25 10:43 315 1 gusting 4 9.4
2017-Jul-25 10:38 261 0 gusting 4 9.4
2017-Jul-25 10:33 316 1 gusting 6 9.4
2017-Jul-25 10:18 287 3 gusting 5 9.4
2017-Jul-25 10:13 296 2 gusting 6 9.4
2017-Jul-25 10:08 276 1 gusting 4 9.4
2017-Jul-25 10:03 277 2 gusting 6 9.4
2017-Jul-25 09:43 260 1 gusting 4 9.4
2017-Jul-25 09:38 288 1 gusting 2 9.4
2017-Jul-25 09:33 312 1 gusting 5 9.4
2017-Jul-25 09:18 314 2 gusting 5 10.0
2017-Jul-25 09:13 273 1 gusting 2 10.0
2017-Jul-25 09:08 274 2 gusting 5 10.0
2017-Jul-25 09:03 289 2 gusting 6 10.0
2017-Jul-25 08:48 286 2 gusting 5 10.0
2017-Jul-25 08:43 274 3 gusting 5 10.0
2017-Jul-25 08:38 301 2 gusting 5 10.0
2017-Jul-25 08:33 289 2 gusting 7 10.0
2017-Jul-25 08:18 294 2 gusting 6 10.0
2017-Jul-25 08:13 252 2 gusting 4 9.4
2017-Jul-25 08:08 288 1 gusting 4 9.4
2017-Jul-25 08:03 285 2 gusting 6 9.4
2017-Jul-25 07:48 326 1 gusting 4 10.0
2017-Jul-25 07:43 338 1 gusting 2 10.0
2017-Jul-25 07:38 036 0 gusting 1 10.0
2017-Jul-25 07:33 240 1 gusting 4 10.0
2017-Jul-25 07:18 030 0 gusting 1 10.0
2017-Jul-25 07:13 164 10.6
2017-Jul-25 07:08 292 0 gusting 1 10.6
2017-Jul-25 07:03 303 1 gusting 4 11.1
2017-Jul-25 06:48 319 2 gusting 5 11.7
2017-Jul-25 06:43 301 2 gusting 4 11.7
2017-Jul-25 06:38 300 1 gusting 5 11.7
2017-Jul-25 06:33 302 1 gusting 6 12.2
2017-Jul-25 06:18 213 2 gusting 5 13.3
2017-Jul-25 06:13 288 2 gusting 6 14.4
2017-Jul-25 06:08 289 2 gusting 6 14.4
2017-Jul-25 06:03 323 2 gusting 6 15.0
2017-Jul-25 05:48 333 2 gusting 6 16.1
2017-Jul-25 05:43 289 2 gusting 5 16.1
2017-Jul-25 05:38 276 1 gusting 5 16.1
2017-Jul-25 05:33 282 1 gusting 6 15.6
2017-Jul-25 05:18 355 2 gusting 5 13.9
2017-Jul-25 05:13 298 3 gusting 6 13.9
2017-Jul-25 05:08 307 2 gusting 5 13.3
2017-Jul-25 05:03 322 4 gusting 7 13.3
2017-Jul-25 04:48 294 2 gusting 5 12.8
2017-Jul-25 04:43 307 2 gusting 6 12.2
2017-Jul-25 04:38 339 1 gusting 7 12.2
2017-Jul-25 04:33 298 2 gusting 7 12.8
2017-Jul-25 04:18 290 4 gusting 7 14.4
2017-Jul-25 04:13 049 2 gusting 7 14.4
2017-Jul-25 04:08 265 2 gusting 5 14.4
2017-Jul-25 04:03 304 2 gusting 6 14.4
2017-Jul-25 03:48 320 4 gusting 10 16.7
2017-Jul-25 03:43 247 2 gusting 6 17.2
2017-Jul-25 03:38 289 2 gusting 6 17.2
2017-Jul-25 03:33 330 2 gusting 6 17.2
2017-Jul-25 03:18 340 2 gusting 6 16.7
2017-Jul-25 03:13 271 2 gusting 6 16.7
2017-Jul-25 03:08 325 3 gusting 6 17.2
2017-Jul-25 03:03 307 2 gusting 5 16.7
2017-Jul-25 02:48 306 2 gusting 5 15.6
2017-Jul-25 02:43 267 2 gusting 5 15.6
2017-Jul-25 02:38 285 2 gusting 6 14.4
2017-Jul-25 02:33 267 2 gusting 5 13.9
2017-Jul-25 02:18 309 2 gusting 5 13.9
2017-Jul-25 02:13 300 2 gusting 5 14.4
2017-Jul-25 02:08 253 2 gusting 5 14.4
2017-Jul-25 02:03 306 3 gusting 6 15.0
2017-Jul-25 01:48 287 4 gusting 6 14.4
2017-Jul-25 01:43 224 3 gusting 6 14.4
2017-Jul-25 01:38 283 4 gusting 8 14.4
2017-Jul-25 01:33 327 2 gusting 8 14.4
2017-Jul-25 01:18 318 4 gusting 7 13.3
2017-Jul-25 01:13 275 3 gusting 6 12.8
2017-Jul-25 01:08 263 4 gusting 6 12.8
2017-Jul-25 01:03 289 5 gusting 8 12.8
2017-Jul-25 00:48 334 6 gusting 7 12.2
2017-Jul-25 00:43 275 5 gusting 8 11.7
2017-Jul-25 00:38 298 5 gusting 7 11.7
2017-Jul-25 00:33 286 5 gusting 13 11.7
2017-Jul-25 00:18 292 6 gusting 10 11.1
2017-Jul-25 00:13 280 6 gusting 7 11.1
2017-Jul-25 00:08 313 4 gusting 6 11.7
2017-Jul-25 00:03 297 5 gusting 8 11.1
2017-Jul-24 23:48 268 3 gusting 6 10.6
2017-Jul-24 23:43 314 4 gusting 6 10.6
2017-Jul-24 23:38 286 4 gusting 6 10.6
2017-Jul-24 23:33 303 4 gusting 6 10.0
2017-Jul-24 23:18 262 1 gusting 5 7.8
2017-Jul-24 23:13 264 1 gusting 4 7.8
2017-Jul-24 23:08 274 1 gusting 4 6.7
2017-Jul-24 23:03 282 1 gusting 4 6.1
2017-Jul-24 22:48 353 1 gusting 4 5.0
2017-Jul-24 22:43 266 1 gusting 4 5.0
2017-Jul-24 22:38 264 0 gusting 2 5.0
2017-Jul-24 22:33 243 0 gusting 1 4.4
2017-Jul-24 22:18 240 1 gusting 6 4.4
2017-Jul-24 22:13 246 1 gusting 6 4.4
2017-Jul-24 22:08 331 0 gusting 6 3.9
2017-Jul-24 22:03 249 0 gusting 2 3.9
2017-Jul-24 21:48 156 3.3
2017-Jul-24 21:43 063 1 gusting 4 3.3
2017-Jul-24 21:38 163 3.3
2017-Jul-24 21:33 009 1 gusting 4 3.3
2017-Jul-24 21:18 071 0 gusting 1 3.3
2017-Jul-24 21:13 131 0 gusting 1 3.3
2017-Jul-24 21:08 112 0 gusting 1 3.9
2017-Jul-24 21:03 098 1 gusting 1 3.9
2017-Jul-24 20:48 029 1 gusting 4 3.9
2017-Jul-24 20:43 058 1 gusting 1 3.9
2017-Jul-24 20:38 065 1 gusting 4 3.9
2017-Jul-24 20:33 048 1 gusting 4 3.9
2017-Jul-24 20:18 057 1 gusting 2 3.9
2017-Jul-24 20:13 074 0 gusting 2 3.9
2017-Jul-24 20:08 080 0 gusting 1 3.9
2017-Jul-24 20:03 069 1 gusting 1 3.9
2017-Jul-24 19:48 111 0 gusting 1 4.4
2017-Jul-24 19:43 099 5.0
2017-Jul-24 19:38 257 0 gusting 1 5.6
2017-Jul-24 19:33 273 0 gusting 2 5.6
2017-Jul-24 19:18 318 1 gusting 2 5.6
2017-Jul-24 19:13 321 1 gusting 2 5.6
2017-Jul-24 19:08 307 1 gusting 2 6.1
2017-Jul-24 19:03 329 1 gusting 5 6.1
2017-Jul-24 18:48 293 1 gusting 2 6.1
2017-Jul-24 18:43 308 1 gusting 4 6.1
2017-Jul-24 18:38 269 1 gusting 4 5.6
2017-Jul-24 18:33 306 1 gusting 2 5.6
2017-Jul-24 18:18 309 1 gusting 2 5.6
2017-Jul-24 18:13 292 1 gusting 4 5.6
2017-Jul-24 18:08 305 2 gusting 5 5.6
2017-Jul-24 18:03 300 2 gusting 5 5.6
2017-Jul-24 17:48 308 2 gusting 4 5.6
2017-Jul-24 17:43 299 1 gusting 6 5.0
2017-Jul-24 17:38 310 2 gusting 5 4.4
2017-Jul-24 17:33 294 2 gusting 5 4.4
2017-Jul-24 17:18 260 0 gusting 1 2.8
2017-Jul-24 17:13 009 1 gusting 2 2.2
2017-Jul-24 17:03 095 2.2